Hourly Data Report for October 17, 2016

All times are specified in Local Standard Time (LST). Add 1 hour to adjust for Daylight Saving Time where and when it is observed.

FREDERICTON
NEW BRUNSWICK

45°52'08.000" N
66°32'14.000" W
20.70 m
8101505
71700
YFC

Download Data

Hourly Data (October 2016)
Hourly Data Report for October 17, 2016
Temp Definition
°C
Dew Point Temp Definition
°C
Rel Hum Definition
%
Wind Dir Definition
10's deg

Wind Spd Definition
km/h
Visibility Definition
km
Stn Press Definition
kPa
Hmdx Definition


Wind Chill Definition


Weather Definition


TIME
00:00 Legend Double Dagger 11.5 11.2 98 22 5 12.9 100.52     LegendNANA
01:00 Legend Double Dagger 10.7 10.6 99 18 11 4.8 100.50     Fog
02:00 Legend Double Dagger 10.9 10.8 99 19 9 12.9 100.50     LegendNANA
03:00 Legend Double Dagger 10.6 10.3 98 LegendMM 4 8.1 100.46     Fog
04:00 Legend Double Dagger 10.2 10.1 99 18 9 8.1 100.45     Fog
05:00 Legend Double Dagger 8.8 8.7 99   0 0.6 100.49     Fog
06:00 Legend Double Dagger 7.1 7.0 99 18 4 0.4 100.54     Fog
07:00 Legend Double Dagger 7.9 7.8 99 24 8 1.0 100.60     Fog
08:00 Legend Double Dagger 9.9 9.8 99 26 5 16.1 100.64     LegendNANA
09:00 Legend Double Dagger 11.8 11.7 99 10 5 16.1 100.71     LegendNANA
10:00 Legend Double Dagger 14.2 12.3 88 33 9 16.1 100.67     LegendNANA
11:00 Legend Double Dagger 14.1 10.1 77 32 17 16.1 100.65     LegendNANA
12:00 Legend Double Dagger 14.7 9.1 69 30 15 16.1 100.69     LegendNANA
13:00 Legend Double Dagger 15.1 7.9 62 28 21 16.1 100.69     LegendNANA
14:00 Legend Double Dagger 14.3 6.3 59 30 26 16.1 100.69     LegendNANA
15:00 Legend Double Dagger 14.0 5.8 57 28 17 16.1 100.72     LegendNANA
16:00 Legend Double Dagger 13.7 5.3 56 28 17 16.1 100.76     LegendNANA
17:00 Legend Double Dagger 12.8 4.4 57 30 9 16.1 100.78     LegendNANA
18:00 Legend Double Dagger 9.9 4.5 69 35 13 16.1 100.88     LegendNANA
19:00 Legend Double Dagger 8.2 4.1 75 35 8 16.1 100.98     LegendNANA
20:00 Legend Double Dagger 8.3 4.0 74 33 8 16.1 101.08     LegendNANA
21:00 Legend Double Dagger 5.5 3.4 86 18 8 16.1 101.12     LegendNANA
22:00 Legend Double Dagger 3.9 2.8 93 22 4 16.1 101.18     LegendNANA
23:00 Legend Double Dagger 2.9 2.3 96 26 4 16.1 101.21     LegendNANA

Notes on Data Quality.

Legend

  • E = Estimated
  • M = Missing
  • NA = Not Available
  • ‡ = Partner data that is not subject to review by the National Climate Archives
Date modified: